Weather History for KMBG - September, 2013

Change the Weather History Date:

Saturday, September 21, 2013

  Actual Average Record
Temperature  
Mean Temperature 60 °F 58 °F  
Max Temperature 78 °F 71 °F 101 °F (1937)
Min Temperature 41 °F 45 °F 27 °F (1918)
Degree Days  
Heating Degree Days 5 8  
Month to date heating degree days 35 100  
Since 1 July heating degree days 48 133  
Cooling Degree Days 0 1  
Month to date cooling degree days 106 55  
Year to date cooling degree days 690 636  
Growing Degree Days 10 (Base 50)    
Moisture  
Dew Point 41 °F    
Average Humidity 58    
Maximum Humidity 89    
Minimum Humidity 27    
Precipitation  
Precipitation 0.00 in 0.06 in 0.41 in (2006)
Month to date precipitation 2.97 1.08  
Year to date precipitation 16.79 14.99  
Sea Level Pressure  
Sea Level Pressure 29.83 in    
Wind  
Wind Speed 14 mph (ESE)    
Max Wind Speed 23 mph    
Max Gust Speed 29 mph    
Visibility 10 miles    
Events      
T = Trace of Precipitation, MM = Missing Value Source: NWS Daily Summary

Daily Weather History Graph

Daily Weather History Graph

Search for Another Location

Airport or City:

Trip Planner

Search our weather history database for the weather conditions in past years. The results will help you decide how hot, cold, wet, or windy it might be!

Date:

Astronomy

Sep. 21, 2013 Rise Set
Actual Time 7:27 AM CDT 7:40 PM CDT
Civil Twilight 6:58 AM CDT 8:10 PM CDT
Nautical Twilight 6:23 AM CDT 8:44 PM CDT
Astronomical Twilight 5:47 AM CDT 9:20 PM CDT
Moon 8:42 PM CDT (9/21) 9:57 AM CDT (9/21)
Length of Visible Light 13h 11m
Length of Day
12h 12m
Waning Gibbous, 94% of the Moon is Illuminated
Sep 21
Waning Gibbous
Sep 26
Last Quarter
Oct 4
New
Oct 11
First Quarter
Oct 18
Full

Hourly Weather History & Observations

Time (CDT) Temp. Windchill Dew Point Humidity Pressure Visibility Wind Dir Wind Speed Gust Speed Precip Events Conditions
12:52 AM 45.0 °F 41.8 °F 37.9 °F 76% 29.98 in 10.0 mi ESE 5.8 mph - N/A   Clear
1:52 AM 48.0 °F - 39.0 °F 71% 29.96 in 10.0 mi East 10.4 mph - N/A   Clear
2:52 AM 46.0 °F 41.0 °F 37.9 °F 73% 29.96 in 10.0 mi East 10.4 mph - N/A   Clear
3:52 AM 44.1 °F 39.0 °F 37.9 °F 79% 29.96 in 10.0 mi East 9.2 mph - N/A   Clear
4:52 AM 42.1 °F 36.6 °F 37.9 °F 85% 29.94 in 10.0 mi East 9.2 mph - N/A   Clear
5:52 AM 42.1 °F 35.7 °F 39.0 °F 89% 29.94 in 10.0 mi East 11.5 mph - N/A   Clear
6:52 AM 44.1 °F 39.5 °F 39.0 °F 82% 29.93 in 10.0 mi East 8.1 mph - N/A   Clear
7:52 AM 44.1 °F 38.1 °F 39.0 °F 82% 29.93 in 10.0 mi East 11.5 mph - N/A   Clear
8:52 AM 48.0 °F - 39.9 °F 74% 29.92 in 10.0 mi East 9.2 mph - N/A   Clear
9:52 AM 54.0 °F - 44.1 °F 69% 29.91 in 10.0 mi East 10.4 mph - N/A   Clear
10:52 AM 64.0 °F - 41.0 °F 43% 29.89 in 10.0 mi ESE 16.1 mph - N/A   Clear
11:52 AM 68.0 °F - 39.9 °F 36% 29.86 in 10.0 mi SE 16.1 mph 24.2 mph N/A   Clear
12:52 PM 71.1 °F - 41.0 °F 34% 29.84 in 10.0 mi SE 17.3 mph 25.3 mph N/A   Clear
1:52 PM 73.0 °F - 39.9 °F 30% 29.80 in 10.0 mi SE 19.6 mph 25.3 mph N/A   Clear
2:52 PM 75.0 °F - 39.9 °F 28% 29.77 in 10.0 mi ESE 19.6 mph 25.3 mph N/A   Clear
3:52 PM 77.0 °F - 41.0 °F 28% 29.75 in 10.0 mi SE 19.6 mph 25.3 mph N/A   Clear
4:52 PM 78.1 °F - 41.0 °F 27% 29.72 in 10.0 mi SE 16.1 mph 25.3 mph N/A   Clear
5:52 PM 77.0 °F - 41.0 °F 28% 29.70 in 10.0 mi ESE 15.0 mph 24.2 mph N/A   Clear
6:52 PM 73.0 °F - 43.0 °F 34% 29.69 in 10.0 mi ESE 15.0 mph - N/A   Clear
7:52 PM 66.0 °F - 43.0 °F 43% 29.69 in 10.0 mi East 16.1 mph - N/A   Unknown
8:52 PM 64.0 °F - 43.0 °F 46% 29.70 in 10.0 mi East 16.1 mph - N/A   Clear
9:52 PM 63.0 °F - 43.0 °F 48% 29.69 in 10.0 mi East 17.3 mph - N/A   Clear
10:52 PM 63.0 °F - 44.1 °F 50% 29.67 in 10.0 mi East 16.1 mph - N/A   Clear
11:52 PM 64.0 °F - 46.0 °F 52% 29.63 in 10.0 mi ESE 18.4 mph 25.3 mph N/A   Clear